IRIDIUM 177

Last updated on Fri Sep 11 2026 00:03:06 GMT+0000 (Coordinated Universal Time)

1 56727U 23068T 26253.59315431 .00000572 00000+0 77233-4 0 9994 2 56727 86.1930 288.2636 0002576 92.9856 267.1658 14.77160043178992
UTC large
Height (km)
Speed (km/s)
/
Latitude / Longitude
Inclination (degrees)
Orbital Period (minutes)
Azimuth
Elevation
Range (km)
Doppler Factor

Next 0 passes for location: London (51.5072 / 0.1276)

No passes found over London.
IRIDIUM 177